| time (UTC) | temp F | wind direction | speed MPH | gust MPH | rain 1hr in | rain 24hr in | rain mn in | humidity % | barometer mb |
| 20260906142152 | 48 | 0 | 0.0 | 0.0 | 0.00 | 0.01 | 0.00 | 100 | 1014.5 |
| 20260906141501 | 47 | 109 | 0.0 | 0.0 | 0.00 | 0.01 | 0.00 | 98 | 1015.0 |
| 20260906141252 | 47 | 0 | 0.0 | 0.0 | 0.00 | 0.01 | 0.00 | 100 | 1014.5 |
| 20260906140352 | 47 | 0 | 0.0 | 0.0 | 0.00 | 0.01 | 0.00 | 100 | 1014.5 |
| 20260906135453 | 47 | 0 | 0.0 | 0.0 | 0.00 | 0.01 | 0.00 | 100 | 1014.5 |
| 20260906134553 | 47 | 0 | 0.0 | 0.0 | 0.00 | 0.01 | 0.00 | 100 | 1014.5 |
| 20260906134502 | 46 | 109 | 0.0 | 0.0 | 0.00 | 0.01 | 0.00 | 98 | 1015.0 |
| 20260906133108 | 46 | 109 | 0.0 | 0.0 | 0.00 | 0.01 | 0.00 | 98 | 1014.8 |
| 20260906131853 | 47 | 0 | 0.0 | 0.0 | 0.00 | 0.01 | 0.00 | 100 | 1014.5 |
| 20260906130953 | 47 | 0 | 0.0 | 0.0 | 0.00 | 0.01 | 0.00 | 100 | 1014.4 |
| 20260906130053 | 47 | 0 | 0.0 | 0.0 | 0.00 | 0.01 | 0.00 | 100 | 1014.4 |
| 20260906125153 | 47 | 0 | 0.0 | 0.0 | 0.00 | 0.01 | 0.00 | 100 | 1014.3 |
| 20260906124502 | 47 | 109 | 0.0 | 0.0 | 0.00 | 0.01 | 0.00 | 98 | 1014.8 |
| 20260906124253 | 47 | 0 | 0.0 | 0.0 | 0.00 | 0.01 | 0.00 | 100 | 1014.3 |
| 20260906123353 | 47 | 0 | 0.0 | 0.0 | 0.00 | 0.01 | 0.00 | 97 | 1014.3 |
| 20260906123110 | 47 | 109 | 0.0 | 0.0 | 0.00 | 0.01 | 0.00 | 97 | 1015.0 |
| 20260906121553 | 48 | 0 | 0.0 | 0.0 | 0.00 | 0.01 | 0.00 | 97 | 1014.4 |
| 20260906121504 | 48 | 109 | 0.0 | 0.0 | 0.00 | 0.01 | 0.00 | 97 | 1015.0 |
| 20260906120122 | 48 | 109 | 0.0 | 0.0 | 0.00 | 0.01 | 0.00 | 98 | 1015.0 |
| 20260906115753 | 49 | 0 | 0.0 | 0.0 | 0.00 | 0.01 | 0.00 | 100 | 1014.6 |
| 20260906114853 | 49 | 0 | 0.0 | 0.0 | 0.00 | 0.01 | 0.00 | 100 | 1014.4 |
| 20260906114502 | 49 | 109 | 0.0 | 0.0 | 0.00 | 0.01 | 0.00 | 98 | 1015.0 |
| 20260906113953 | 49 | 0 | 0.0 | 0.0 | 0.00 | 0.01 | 0.00 | 100 | 1014.6 |
| 20260906113103 | 49 | 109 | 0.0 | 0.0 | 0.00 | 0.01 | 0.00 | 98 | 1015.3 |
| 20260906113053 | 49 | 0 | 0.0 | 0.0 | 0.00 | 0.01 | 0.00 | 100 | 1014.7 |
| 20260906111502 | 48 | 109 | 0.0 | 0.0 | 0.00 | 0.01 | 0.00 | 98 | 1015.3 |
| 20260906111253 | 49 | 0 | 0.0 | 0.0 | 0.00 | 0.01 | 0.00 | 100 | 1014.8 |
| 20260906110353 | 49 | 0 | 0.0 | 0.0 | 0.00 | 0.01 | 0.00 | 97 | 1015.0 |
| 20260906110111 | 48 | 109 | 0.0 | 0.0 | 0.00 | 0.01 | 0.00 | 97 | 1015.5 |
| 20260906105453 | 49 | 0 | 0.0 | 0.0 | 0.00 | 0.01 | 0.00 | 97 | 1015.0 |
| 20260906104553 | 49 | 0 | 0.0 | 0.0 | 0.00 | 0.01 | 0.00 | 100 | 1015.0 |
| 20260906104508 | 49 | 109 | 0.0 | 0.0 | 0.00 | 0.01 | 0.00 | 97 | 1015.5 |
| 20260906103653 | 49 | 0 | 0.0 | 0.0 | 0.00 | 0.01 | 0.00 | 100 | 1014.9 |
| 20260906103102 | 49 | 109 | 0.0 | 0.0 | 0.00 | 0.01 | 0.00 | 98 | 1015.4 |
| 20260906101853 | 50 | 0 | 0.0 | 0.0 | 0.00 | 0.01 | 0.00 | 100 | 1015.0 |
| 20260906101502 | 49 | 109 | 0.0 | 0.0 | 0.00 | 0.01 | 0.00 | 98 | 1015.5 |
| 20260906100953 | 50 | 0 | 0.0 | 0.0 | 0.00 | 0.01 | 0.00 | 100 | 1014.9 |
| 20260906100105 | 49 | 109 | 0.0 | 0.0 | 0.00 | 0.01 | 0.00 | 98 | 1015.4 |
| 20260906100053 | 49 | 0 | 0.0 | 0.0 | 0.00 | 0.01 | 0.00 | 100 | 1014.8 |
| 20260906095153 | 49 | 0 | 0.0 | 0.0 | 0.00 | 0.01 | 0.00 | 100 | 1014.8 |
| 20260906093353 | 49 | 0 | 0.0 | 1.0 | 0.00 | 0.01 | 0.00 | 100 | 1014.6 |
| 20260906093118 | 48 | 106 | 0.0 | 1.0 | 0.00 | 0.01 | 0.00 | 98 | 1015.2 |
| 20260906092453 | 48 | 0 | 0.0 | 0.0 | 0.00 | 0.01 | 0.00 | 97 | 1014.8 |
| 20260906091553 | 48 | 0 | 0.0 | 0.0 | 0.00 | 0.01 | 0.00 | 97 | 1014.7 |
| 20260906091503 | 48 | 106 | 0.0 | 0.0 | 0.00 | 0.01 | 0.00 | 97 | 1015.3 |
| 20260906090126 | 48 | 106 | 0.0 | 0.0 | 0.00 | 0.01 | 0.00 | 97 | 1015.3 |
| 20260906084853 | 48 | 0 | 0.0 | 0.0 | 0.00 | 0.01 | 0.00 | 97 | 1014.8 |
| 20260906084508 | 47 | 106 | 0.0 | 0.0 | 0.00 | 0.01 | 0.00 | 97 | 1015.3 |
| 20260906083103 | 47 | 106 | 0.0 | 0.0 | 0.00 | 0.01 | 0.00 | 97 | 1015.2 |
| 20260906083053 | 47 | 0 | 0.0 | 0.0 | 0.00 | 0.01 | 0.00 | 97 | 1014.7 |
| 20260906081511 | 47 | 106 | 0.0 | 0.0 | 0.00 | 0.01 | 0.00 | 96 | 1015.4 |
| 20260906081253 | 47 | 0 | 0.0 | 0.0 | 0.00 | 0.01 | 0.00 | 96 | 1014.8 |
| 20260906080353 | 48 | 0 | 0.0 | 0.0 | 0.00 | 0.01 | 0.00 | 96 | 1014.8 |
| 20260906080104 | 47 | 106 | 0.0 | 0.0 | 0.00 | 0.01 | 0.00 | 96 | 1015.2 |
| 20260906075453 | 48 | 0 | 0.0 | 0.0 | 0.00 | 0.01 | 0.00 | 96 | 1014.8 |
| 20260906074553 | 48 | 0 | 0.0 | 0.0 | 0.00 | 0.01 | 0.00 | 97 | 1014.8 |
| 20260906074503 | 48 | 106 | 0.0 | 0.0 | 0.00 | 0.01 | 0.00 | 97 | 1015.3 |
| 20260906073105 | 48 | 106 | 0.0 | 0.0 | 0.00 | 0.01 | 0.00 | 96 | 1015.3 |
| 20260906071853 | 49 | 0 | 0.0 | 1.0 | 0.00 | 0.01 | 0.00 | 97 | 1015.0 |
| 20260906071503 | 48 | 106 | 0.0 | 0.0 | 0.00 | 0.01 | 0.00 | 96 | 1015.6 |
| 20260906070953 | 48 | 0 | 0.0 | 0.0 | 0.00 | 0.01 | 0.00 | 96 | 1015.0 |
| 20260906070053 | 49 | 0 | 0.0 | 0.0 | 0.00 | 0.01 | 0.00 | 96 | 1015.3 |
| 20260906065153 | 49 | 0 | 0.0 | 0.0 | 0.00 | 0.01 | 0.01 | 96 | 1015.2 |
| 20260906064503 | 49 | 106 | 0.0 | 0.0 | 0.00 | 0.01 | 0.01 | 96 | 1015.6 |
| 20260906064253 | 49 | 0 | 0.0 | 0.0 | 0.00 | 0.01 | 0.01 | 96 | 1015.0 |
| 20260906063353 | 49 | 0 | 0.0 | 0.0 | 0.00 | 0.01 | 0.01 | 95 | 1015.0 |
| 20260906063103 | 49 | 106 | 0.0 | 0.0 | 0.00 | 0.01 | 0.01 | 95 | 1015.6 |
| 20260906062453 | 50 | 0 | 0.0 | 0.0 | 0.00 | 0.01 | 0.01 | 95 | 1015.0 |
| 20260906061553 | 50 | 0 | 0.0 | 0.0 | 0.00 | 0.01 | 0.01 | 95 | 1015.0 |
| 20260906061503 | 50 | 106 | 0.0 | 0.0 | 0.00 | 0.01 | 0.01 | 95 | 1015.7 |
| 20260906060653 | 50 | 0 | 0.0 | 0.0 | 0.00 | 0.01 | 0.01 | 95 | 1015.1 |
| 20260906055753 | 51 | 0 | 0.0 | 0.0 | 0.00 | 0.01 | 0.01 | 95 | 1015.3 |
| 20260906054853 | 51 | 0 | 0.0 | 0.0 | 0.00 | 0.01 | 0.01 | 94 | 1015.2 |
| 20260906054502 | 51 | 106 | 0.0 | 0.0 | 0.00 | 0.01 | 0.01 | 94 | 1015.8 |
| 20260906053102 | 51 | 106 | 0.0 | 0.0 | 0.00 | 0.01 | 0.01 | 94 | 1016.0 |
| 20260906053053 | 52 | 0 | 0.0 | 0.0 | 0.00 | 0.01 | 0.01 | 94 | 1015.4 |
| 20260906051503 | 52 | 106 | 0.0 | 0.0 | 0.00 | 0.01 | 0.01 | 94 | 1015.9 |
| 20260906050353 | 52 | 0 | 0.0 | 0.0 | 0.00 | 0.01 | 0.01 | 94 | 1015.3 |
| 20260906050131 | 52 | 106 | 0.0 | 0.0 | 0.00 | 0.01 | 0.01 | 94 | 1015.9 |
| 20260906045453 | 53 | 0 | 0.0 | 1.0 | 0.00 | 0.01 | 0.01 | 94 | 1015.3 |
| 20260906044553 | 53 | 0 | 0.0 | 0.0 | 0.00 | 0.01 | 0.01 | 93 | 1015.4 |
| 20260906044503 | 52 | 106 | 0.0 | 0.0 | 0.00 | 0.01 | 0.01 | 93 | 1016.0 |
| 20260906043653 | 53 | 0 | 0.0 | 0.0 | 0.00 | 0.01 | 0.01 | 93 | 1015.5 |
| 20260906043110 | 53 | 106 | 0.0 | 0.0 | 0.00 | 0.01 | 0.01 | 93 | 1016.1 |
| 20260906042753 | 53 | 0 | 0.0 | 0.0 | 0.00 | 0.01 | 0.01 | 93 | 1015.5 |
| 20260906041853 | 54 | 0 | 0.0 | 0.0 | 0.00 | 0.01 | 0.01 | 90 | 1015.4 |
| 20260906041503 | 54 | 106 | 0.0 | 0.0 | 0.00 | 0.01 | 0.01 | 91 | 1016.0 |
| 20260906040106 | 54 | 106 | 0.0 | 0.0 | 0.00 | 0.01 | 0.01 | 90 | 1015.9 |
| 20260906040053 | 55 | 0 | 0.0 | 0.0 | 0.00 | 0.01 | 0.01 | 89 | 1015.4 |
| 20260906035153 | 56 | 0 | 0.0 | 0.0 | 0.00 | 0.01 | 0.01 | 89 | 1015.3 |
| 20260906034501 | 56 | 106 | 0.0 | 1.0 | 0.00 | 0.01 | 0.01 | 88 | 1015.7 |
| 20260906034253 | 56 | 0 | 0.0 | 1.0 | 0.00 | 0.01 | 0.01 | 88 | 1015.1 |
| 20260906033353 | 57 | 0 | 0.0 | 0.0 | 0.00 | 0.01 | 0.01 | 89 | 1015.0 |
| 20260906033103 | 57 | 59 | 0.0 | 0.0 | 0.00 | 0.01 | 0.01 | 88 | 1015.6 |
| 20260906032453 | 57 | 0 | 0.0 | 0.0 | 0.00 | 0.01 | 0.01 | 86 | 1015.0 |
| 20260906031554 | 58 | 0 | 0.0 | 0.0 | 0.00 | 0.01 | 0.01 | 86 | 1014.9 |
| 20260906031501 | 58 | 59 | 0.0 | 0.0 | 0.00 | 0.01 | 0.01 | 86 | 1015.4 |
| 20260906030653 | 59 | 0 | 0.0 | 0.0 | 0.00 | 0.01 | 0.01 | 86 | 1014.9 |
| 20260906024853 | 60 | 0 | 0.0 | 0.0 | 0.00 | 0.01 | 0.01 | 81 | 1015.0 |
| 20260906024502 | 60 | 59 | 0.0 | 0.0 | 0.00 | 0.01 | 0.01 | 79 | 1015.5 |
| 20260906023953 | 61 | 0 | 0.0 | 0.0 | 0.00 | 0.01 | 0.01 | 78 | 1015.0 |
| 20260906023124 | 61 | 58 | 0.0 | 0.0 | 0.00 | 0.01 | 0.01 | 77 | 1015.5 |
| 20260906023053 | 62 | 0 | 0.0 | 0.0 | 0.00 | 0.01 | 0.01 | 77 | 1015.0 |
| 20260906022153 | 63 | 0 | 0.0 | 0.0 | 0.00 | 0.01 | 0.01 | 75 | 1015.1 |
| 20260906021502 | 63 | 59 | 0.0 | 0.0 | 0.00 | 0.01 | 0.01 | 72 | 1015.4 |
| 20260906021253 | 64 | 0 | 0.0 | 0.0 | 0.00 | 0.01 | 0.01 | 73 | 1015.0 |
| 20260906020353 | 65 | 0 | 0.0 | 0.0 | 0.00 | 0.01 | 0.01 | 70 | 1015.0 |
| 20260906014553 | 67 | 0 | 0.0 | 0.0 | 0.00 | 0.01 | 0.01 | 67 | 1015.0 |
| 20260906014501 | 67 | 59 | 0.0 | 0.0 | 0.00 | 0.01 | 0.01 | 67 | 1015.5 |
| 20260906013102 | 68 | 59 | 0.0 | 0.0 | 0.00 | 0.01 | 0.01 | 65 | 1015.5 |
| 20260906012753 | 68 | 0 | 0.0 | 0.0 | 0.00 | 0.01 | 0.01 | 65 | 1015.0 |
| 20260906011853 | 68 | 0 | 0.0 | 1.0 | 0.00 | 0.01 | 0.01 | 65 | 1015.0 |
| 20260906011501 | 68 | 58 | 0.0 | 1.0 | 0.00 | 0.01 | 0.01 | 65 | 1015.5 |
| 20260906010953 | 69 | 0 | 0.0 | 1.0 | 0.00 | 0.01 | 0.01 | 65 | 1014.9 |
| 20260906010054 | 69 | 0 | 0.0 | 1.0 | 0.00 | 0.01 | 0.01 | 66 | 1014.8 |
| 20260906004501 | 70 | 56 | 0.0 | 1.0 | 0.00 | 0.01 | 0.01 | 62 | 1015.2 |
| 20260906004253 | 70 | 0 | 0.0 | 1.0 | 0.00 | 0.01 | 0.01 | 62 | 1014.7 |
| 20260906003353 | 71 | 0 | 0.0 | 1.0 | 0.00 | 0.01 | 0.01 | 63 | 1014.6 |
| 20260906003108 | 70 | 37 | 0.0 | 1.0 | 0.00 | 0.01 | 0.01 | 62 | 1015.0 |
| 20260906002453 | 72 | 59 | 0.0 | 2.0 | 0.00 | 0.01 | 0.01 | 61 | 1014.6 |
| 20260906001554 | 73 | 49 | 1.0 | 2.0 | 0.00 | 0.01 | 0.01 | 59 | 1014.6 |
| 20260906001500 | 73 | 63 | 0.0 | 3.0 | 0.00 | 0.01 | 0.01 | 58 | 1015.1 |
| 20260906000654 | 76 | 19 | 1.0 | 4.0 | 0.00 | 0.01 | 0.01 | 54 | 1014.6 |
| 20260906000101 | 76 | 74 | 1.0 | 4.0 | 0.00 | 0.01 | 0.01 | 52 | 1015.0 |
| 20260905234853 | 76 | 82 | 2.0 | 6.0 | 0.00 | 0.01 | 0.01 | 54 | 1014.4 |
| 20260905234501 | 75 | 24 | 1.0 | 7.0 | 0.00 | 0.01 | 0.01 | 51 | 1015.1 |
| 20260905233100 | 75 | 110 | 3.0 | 6.0 | 0.00 | 0.01 | 0.01 | 50 | 1015.1 |
| 20260905233053 | 75 | 117 | 1.0 | 6.0 | 0.00 | 0.01 | 0.01 | 50 | 1014.6 |
| 20260905232153 | 75 | 115 | 1.0 | 4.0 | 0.00 | 0.01 | 0.01 | 49 | 1014.5 |
| 20260905231502 | 75 | 136 | 1.0 | 7.0 | 0.00 | 0.01 | 0.01 | 53 | 1015.0 |
| 20260905231253 | 75 | 104 | 1.0 | 7.0 | 0.00 | 0.01 | 0.01 | 54 | 1014.6 |
| 20260905230354 | 74 | 166 | 1.0 | 7.0 | 0.00 | 0.01 | 0.01 | 56 | 1014.7 |
| 20260905225453 | 73 | 132 | 2.0 | 6.0 | 0.00 | 0.01 | 0.01 | 58 | 1014.8 |
| 20260905224553 | 73 | 130 | 2.0 | 8.0 | 0.00 | 0.01 | 0.01 | 58 | 1014.9 |
| 20260905224501 | 73 | 148 | 1.0 | 8.0 | 0.00 | 0.01 | 0.01 | 58 | 1015.5 |
| 20260905223654 | 73 | 138 | 3.0 | 7.0 | 0.00 | 0.01 | 0.01 | 57 | 1014.9 |
| 20260905223101 | 72 | 131 | 1.0 | 9.0 | 0.00 | 0.01 | 0.01 | 58 | 1015.6 |
| 20260905221854 | 72 | 162 | 1.0 | 7.0 | 0.00 | 0.01 | 0.01 | 58 | 1015.1 |
| 20260905221502 | 72 | 101 | 0.0 | 4.0 | 0.00 | 0.01 | 0.01 | 60 | 1015.6 |
| 20260905220954 | 72 | 209 | 1.0 | 4.0 | 0.00 | 0.01 | 0.01 | 60 | 1015.2 |
| 20260905220054 | 71 | 164 | 1.0 | 5.0 | 0.00 | 0.01 | 0.01 | 62 | 1015.3 |
| 20260905215154 | 70 | 192 | 1.0 | 4.0 | 0.00 | 0.01 | 0.01 | 66 | 1015.3 |
| 20260905214502 | 69 | 162 | 1.0 | 5.0 | 0.00 | 0.01 | 0.01 | 66 | 1016.0 |
| 20260905213354 | 69 | 155 | 1.0 | 4.0 | 0.00 | 0.01 | 0.01 | 68 | 1015.6 |
| 20260905213114 | 68 | 155 | 1.0 | 4.0 | 0.00 | 0.01 | 0.01 | 68 | 1016.2 |
| 20260905212453 | 68 | 153 | 2.0 | 4.0 | 0.00 | 0.01 | 0.01 | 69 | 1015.5 |
| 20260905211502 | 67 | 146 | 2.0 | 4.0 | 0.00 | 0.01 | 0.01 | 72 | 1016.1 |
| 20260905210653 | 66 | 159 | 1.0 | 4.0 | 0.00 | 0.01 | 0.01 | 74 | 1015.7 |
| 20260905210103 | 66 | 191 | 1.0 | 3.0 | 0.00 | 0.01 | 0.01 | 75 | 1016.5 |
| 20260905205753 | 65 | 154 | 0.0 | 3.0 | 0.00 | 0.01 | 0.01 | 76 | 1016.0 |
| 20260905204853 | 64 | 232 | 0.0 | 2.0 | 0.00 | 0.01 | 0.01 | 78 | 1016.0 |
| 20260905204504 | 64 | 264 | 0.0 | 2.0 | 0.00 | 0.01 | 0.01 | 78 | 1016.6 |
| 20260905203105 | 63 | 141 | 0.0 | 4.0 | 0.00 | 0.01 | 0.01 | 79 | 1016.8 |
| 20260905203053 | 63 | 154 | 1.0 | 4.0 | 0.00 | 0.01 | 0.01 | 79 | 1016.3 |
| 20260905202154 | 63 | 157 | 0.0 | 4.0 | 0.00 | 0.01 | 0.01 | 79 | 1016.3 |
| 20260905201501 | 62 | 118 | 0.0 | 3.0 | 0.00 | 0.01 | 0.01 | 80 | 1016.8 |
| 20260905201254 | 63 | 148 | 0.0 | 2.0 | 0.00 | 0.01 | 0.01 | 80 | 1016.2 |
| 20260905200353 | 62 | 164 | 1.0 | 3.0 | 0.00 | 0.01 | 0.01 | 80 | 1016.3 |
| 20260905195454 | 62 | 174 | 0.0 | 3.0 | 0.00 | 0.01 | 0.01 | 81 | 1016.3 |
| 20260905194554 | 62 | 0 | 0.0 | 2.0 | 0.00 | 0.01 | 0.01 | 81 | 1016.3 |
| 20260905194502 | 62 | 197 | 0.0 | 2.0 | 0.00 | 0.01 | 0.01 | 81 | 1016.9 |
| 20260905193654 | 61 | 0 | 0.0 | 2.0 | 0.00 | 0.01 | 0.01 | 81 | 1016.4 |
| 20260905193101 | 61 | 150 | 0.0 | 2.0 | 0.00 | 0.01 | 0.01 | 81 | 1016.9 |
| 20260905192754 | 61 | 0 | 0.0 | 2.0 | 0.00 | 0.01 | 0.01 | 82 | 1016.5 |
| 20260905191854 | 61 | 0 | 0.0 | 2.0 | 0.00 | 0.01 | 0.01 | 82 | 1016.5 |
| 20260905191502 | 60 | 172 | 0.0 | 2.0 | 0.00 | 0.01 | 0.01 | 84 | 1017.1 |
| 20260905190954 | 60 | 0 | 0.0 | 3.0 | 0.00 | 0.01 | 0.01 | 86 | 1016.6 |
| 20260905190103 | 59 | 163 | 0.0 | 4.0 | 0.00 | 0.01 | 0.01 | 88 | 1017.2 |
| 20260905190054 | 60 | 210 | 0.0 | 3.0 | 0.00 | 0.01 | 0.01 | 88 | 1016.7 |
| 20260905184507 | 58 | 269 | 0.0 | 2.0 | 0.01 | 0.01 | 0.01 | 90 | 1017.3 |
| 20260905184254 | 58 | 0 | 0.0 | 2.0 | 0.01 | 0.01 | 0.01 | 91 | 1016.8 |
| 20260905183102 | 57 | 215 | 0.0 | 3.0 | 0.01 | 0.01 | 0.01 | 92 | 1017.3 |
| 20260905181554 | 56 | 274 | 1.0 | 2.0 | 0.01 | 0.01 | 0.01 | 94 | 1017.1 |
| 20260905181503 | 56 | 231 | 0.0 | 2.0 | 0.01 | 0.01 | 0.01 | 94 | 1017.5 |
| 20260905180654 | 56 | 280 | 0.0 | 2.0 | 0.01 | 0.01 | 0.01 | 94 | 1017.1 |
| 20260905175754 | 55 | 0 | 0.0 | 3.0 | 0.01 | 0.01 | 0.01 | 94 | 1017.0 |
| 20260905174854 | 55 | 0 | 0.0 | 1.0 | 0.00 | 0.00 | 0.00 | 95 | 1017.1 |
| 20260905174504 | 54 | 236 | 0.0 | 1.0 | 0.00 | 0.00 | 0.00 | 96 | 1017.5 |
| 20260905173954 | 54 | 0 | 0.0 | 0.0 | 0.00 | 0.00 | 0.00 | 96 | 1017.1 |
| 20260905173111 | 53 | 248 | 0.0 | 3.0 | 0.00 | 0.00 | 0.00 | 96 | 1017.5 |
| 20260905173054 | 54 | 0 | 0.0 | 2.0 | 0.00 | 0.00 | 0.00 | 96 | 1017.0 |
| 20260905172154 | 53 | 280 | 0.0 | 2.0 | 0.00 | 0.00 | 0.00 | 97 | 1017.0 |
| 20260905171502 | 53 | 257 | 0.0 | 2.0 | 0.00 | 0.00 | 0.00 | 97 | 1017.5 |
| 20260905171254 | 53 | 0 | 0.0 | 2.0 | 0.00 | 0.00 | 0.00 | 97 | 1016.9 |
| 20260905170354 | 53 | 0 | 0.0 | 0.0 | 0.00 | 0.00 | 0.00 | 97 | 1017.0 |
| 20260905165454 | 53 | 0 | 0.0 | 2.0 | 0.00 | 0.00 | 0.00 | 100 | 1017.0 |
| 20260905164554 | 53 | 0 | 0.0 | 2.0 | 0.00 | 0.00 | 0.00 | 100 | 1016.9 |
| 20260905164501 | 52 | 93 | 0.0 | 0.0 | 0.00 | 0.00 | 0.00 | 98 | 1017.4 |
| 20260905163654 | 52 | 0 | 0.0 | 0.0 | 0.00 | 0.00 | 0.00 | 100 | 1016.9 |
| 20260905163107 | 52 | 93 | 0.0 | 1.0 | 0.00 | 0.00 | 0.00 | 98 | 1017.3 |
| 20260905161854 | 52 | 144 | 1.0 | 2.0 | 0.00 | 0.00 | 0.00 | 100 | 1016.7 |
| 20260905161501 | 52 | 139 | 0.0 | 3.0 | 0.00 | 0.00 | 0.00 | 98 | 1017.1 |
| 20260905160105 | 51 | 162 | 0.0 | 0.0 | 0.00 | 0.00 | 0.00 | 98 | 1017.2 |
| 20260905160054 | 52 | 0 | 0.0 | 0.0 | 0.00 | 0.00 | 0.00 | 100 | 1016.6 |
| 20260905155154 | 52 | 0 | 0.0 | 0.0 | 0.00 | 0.00 | 0.00 | 99 | 1016.5 |
| 20260905154502 | 51 | 162 | 0.0 | 0.0 | 0.00 | 0.00 | 0.00 | 98 | 1017.0 |
| 20260905154254 | 51 | 0 | 0.0 | 0.0 | 0.00 | 0.00 | 0.00 | 99 | 1016.5 |
| 20260905153354 | 51 | 0 | 0.0 | 0.0 | 0.00 | 0.00 | 0.00 | 100 | 1016.5 |
| 20260905153107 | 50 | 162 | 0.0 | 0.0 | 0.00 | 0.00 | 0.00 | 98 | 1017.1 |
| 20260905152454 | 50 | 0 | 0.0 | 0.0 | 0.00 | 0.00 | 0.00 | 99 | 1016.6 |
| 20260905151554 | 50 | 0 | 0.0 | 0.0 | 0.00 | 0.00 | 0.00 | 100 | 1016.5 |
| 20260905151502 | 49 | 162 | 0.0 | 0.0 | 0.00 | 0.00 | 0.00 | 98 | 1017.0 |
| 20260905150654 | 50 | 0 | 0.0 | 0.0 | 0.00 | 0.00 | 0.00 | 100 | 1016.4 |
| 20260905144854 | 48 | 0 | 0.0 | 0.0 | 0.00 | 0.00 | 0.00 | 100 | 1016.4 |
| 20260905144509 | 48 | 162 | 0.0 | 0.0 | 0.00 | 0.00 | 0.00 | 98 | 1017.0 |
| 20260905143954 | 48 | 0 | 0.0 | 0.0 | 0.00 | 0.00 | 0.00 | 100 | 1016.5 |